New Iberia, LA

4:46 AM CDT on July 24, 2017 (GMT -0500)
Acadiana Regional

Weather History for KARA - February, 2013

Change the Weather History Date:

Tuesday, February 19, 2013

  Actual Average Record
Temperature  
Mean Temperature 58 °F 56 °F  
Max Temperature 68 °F 67 °F 81 °F (2017)
Min Temperature 48 °F 46 °F 30 °F (1960)
Degree Days  
Heating Degree Days 7 9  
Month to date heating degree days 113 205  
Since 1 July heating degree days 829 1142  
Cooling Degree Days 0 1  
Month to date cooling degree days 10 15  
Year to date cooling degree days 48 27  
Growing Degree Days 8 (Base 50)    
Moisture  
Dew Point 45 °F    
Average Humidity 55    
Maximum Humidity 78    
Minimum Humidity 32    
Precipitation  
Precipitation 0.08 in 0.16 in 4.42 in (1991)
Month to date precipitation 2.64 2.81  
Year to date precipitation 15.44 8.03  
Sea Level Pressure  
Sea Level Pressure 30.15 in    
Wind  
Wind Speed 11 mph (North)    
Max Wind Speed 23 mph    
Max Gust Speed 32 mph    
Visibility 10 miles    
Events Rain    
T = Trace of Precipitation, MM = Missing Value Source: NWS Daily Summary

Daily Weather History Graph

Daily Weather History Graph

Search for Another Location

Airport or City:

Trip Planner

Search our weather history database for the weather conditions in past years. The results will help you decide how hot, cold, wet, or windy it might be!

Date:

Astronomy

Feb. 19, 2013 Rise Set
Actual Time 6:43 AM CST 5:59 PM CST
Civil Twilight 6:19 AM CST 6:23 PM CST
Nautical Twilight 5:51 AM CST 6:51 PM CST
Astronomical Twilight 5:23 AM CST 7:19 PM CST
Moon 12:44 PM CST (2/19) 2:02 AM CST (2/19)
Length of Visible Light 12h 04m
Length of Day
11h 16m
Waxing Gibbous, 67% of the Moon is Illuminated
Feb 19
Waxing Gibbous
Feb 25
Full
Mar 4
Last Quarter
Mar 11
New
Mar 19
First Quarter

Hourly Weather History & Observations

Time (CST) Temp. Dew Point Humidity Pressure Visibility Wind Dir Wind Speed Gust Speed Precip Events Conditions
12:10 AM 66.2 °F 62.6 °F 88% 29.99 in 4.0 mi SSW 11.5 mph 24.2 mph 0.06 in Rain Heavy Rain
12:29 AM 64.4 °F 60.8 °F 88% 30.00 in 10.0 mi WSW 10.4 mph - 0.07 in Rain Light Rain
12:53 AM 63.0 °F 57.9 °F 84% 30.00 in 10.0 mi SW 8.1 mph - 0.07 in   Mostly Cloudy
1:53 AM 63.0 °F 57.9 °F 84% 30.02 in 10.0 mi West 9.2 mph - 0.00 in Rain Light Rain
2:53 AM 62.1 °F 57.9 °F 86% 30.02 in 10.0 mi NW 8.1 mph - 0.01 in   Overcast
3:53 AM 60.1 °F 53.1 °F 78% 30.06 in 10.0 mi NNW 12.7 mph - N/A   Mostly Cloudy
4:53 AM 57.9 °F 50.0 °F 75% 30.08 in 10.0 mi North 12.7 mph - N/A   Overcast
5:53 AM 55.0 °F 48.9 °F 80% 30.12 in 10.0 mi North 9.2 mph - N/A   Clear
6:53 AM 53.1 °F 44.1 °F 71% 30.16 in 10.0 mi North 13.8 mph - N/A   Clear
7:53 AM 54.0 °F 44.1 °F 69% 30.18 in 10.0 mi North 16.1 mph - N/A   Clear
8:53 AM 57.0 °F 43.0 °F 59% 30.21 in 10.0 mi NNE 18.4 mph 24.2 mph N/A   Clear
9:53 AM 60.1 °F 44.1 °F 55% 30.23 in 10.0 mi NNE 13.8 mph - N/A   Clear
10:53 AM 61.0 °F 42.1 °F 50% 30.24 in 10.0 mi NNE 12.7 mph - N/A   Clear
12:53 PM 66.0 °F 41.0 °F 40% 30.20 in 10.0 mi North 15.0 mph 19.6 mph N/A   Clear
1:53 PM 66.9 °F 39.9 °F 37% 30.19 in 10.0 mi North 10.4 mph 17.3 mph N/A   Clear
2:53 PM 68.0 °F 37.0 °F 32% 30.19 in 10.0 mi NNE 12.7 mph 21.9 mph N/A   Clear
3:53 PM 66.9 °F 35.1 °F 31% 30.18 in 10.0 mi NNE 12.7 mph 21.9 mph N/A   Clear
4:53 PM 66.0 °F 35.1 °F 32% 30.18 in 10.0 mi NNE 12.7 mph - N/A   Clear
6:53 PM 54.0 °F 39.9 °F 59% 30.19 in 10.0 mi North 9.2 mph - N/A   Clear
7:53 PM 52.0 °F 37.0 °F 57% 30.21 in 10.0 mi North 8.1 mph - N/A   Clear
8:53 PM 52.0 °F 36.0 °F 54% 30.22 in 10.0 mi NNE 6.9 mph - N/A   Clear
9:53 PM 48.0 °F 36.0 °F 63% 30.23 in 10.0 mi NNE 8.1 mph - N/A   Clear
10:53 PM 51.1 °F 36.0 °F 56% 30.23 in 10.0 mi NE 9.2 mph - N/A   Clear
11:53 PM 51.1 °F 35.1 °F 54% 30.21 in 10.0 mi NE 9.2 mph - N/A   Clear